Accueil
METAR-TAF:

METAR-TAF

Aéroports :

Emmen, Suisse

latitude: 47-05-32N, longitude: 8-18-16E, altitude: 426 m

Observation

Le bulletin a été fait il y a 50 minutes, à 00:50 UTC
Vent calme
Température 22°C
Humidité 88%
Pression 1020 hPa
Visibilité 10 km ou plus
Quelques nuages à une hauteur de 7000 ft

METAR: LSME 240050Z AUTO 00000KT 9999NDV FEW070 22/20 Q1020 RMK

Heure: 03:40 (01:40 UTC)


TAF: absent

Observations et prévisions météorologiques de plus de 4000 aéroports (messages METAR et TAF).

Les stations disponibles sont représentées par des disques jaunes et rouges sur la carte.

Passer la souris dessus pour voir le nom de la station.

Cliquer dessus pour voir les observations et prévisions météorologiques.

Pour changer de carte: cliquez sur les boutons verts avec une croix noire pour zoomer, sur le bouton vert avec un tiret pour effectuer un zoom arrière, ou sur les flèches vertes pour les cartes adjacentes.


METAR-TAF: